Flag for Central African Republic Weather past 2 weeks in Bimbo, Central African Republic

Now
93 °F

Partly sunny.


Feels Like: 105 °F
Forecast: 74 / 92 °F
Wind: 5 mph from North

Location: Bangui Airport

Current Time: May 22, 2015 at 4:12:46 PM

Latest Report: May 22, 2015 at 3:00 PM


Visibility: N/A

Pressure: 29.83 "Hg

Humidity: 56%

Dew point: 75 °F

Location of BimboLocation

Historic Weather in Bimbo — Graph

°F

Bimbo temperature yesterday

Maximum temperature yesterday: 90 °F (at 2:00 PM)
Minimum temperature yesterday: 75 °F (at 7:00 AM)
Average temperature yesterday: 83 °F

Past Weeks' High & Low Weather Summary

 TemperatureHumidityPressure
High95 °F (May 9, 12:00 PM)100% (May 8, 1:00 AM)30.01 "Hg (May 8, 1:00 AM)
Low70 °F (May 9, 5:00 PM)47% (May 11, 3:00 PM)29.77 "Hg (May 11, 3:00 PM)
Average81 °F82%29.89 "Hg
* Reported May 7 3:00 PM — May 22 3:00 PM, Bimbo, Weather by CustomWeather, © 2015

Note: Actual official high and low records may vary slightly from our data, if they occured in-between our weather recording intervals... More about our weather records

Advertising

Bimbo weather history for previous 24 hours

 ConditionsComfort  
Time TempWeatherWind HumidityBarometerVisibility
3:00 PM
Fri, May 22
93 °FPartly sunny.5 mph56%29.83 "HgN/A
2:00 PM91 °FPartly sunny.5 mph56%29.86 "HgN/A
1:00 PM91 °FPartly sunny.7 mph59%29.89 "HgN/A
12:00 PM88 °FPartly sunny.5 mph62%29.95 "HgN/A
11:00 AM88 °FPartly sunny.5 mph62%29.95 "HgN/A
10:00 AM86 °FPartly sunny.2 mph70%29.95 "HgN/A
9:00 AM84 °FBroken clouds.2 mph79%29.95 "HgN/A
8:00 AM81 °FPartly sunny.2 mph84%29.95 "HgN/A
7:00 AM75 °FScattered clouds.1 mph100%29.95 "Hg5 mi
6:00 AM73 °FScattered clouds.No wind100%29.92 "Hg4 mi
5:00 AM73 °FClear.No wind100%29.92 "Hg10 mi
4:00 AM75 °FClear.No wind94%29.89 "Hg10 mi
3:00 AM75 °FClear.No wind100%29.89 "Hg10 mi
2:00 AM77 °FClear.No wind94%29.92 "Hg10 mi
12:00 AM77 °FClear.No wind94%29.92 "Hg10 mi
11:00 PM
Thu, May 21
77 °FClear.No wind94%29.95 "Hg10 mi
10:00 PM79 °FClear.1 mph94%29.95 "Hg10 mi
9:00 PM79 °FClear.3 mph89%29.95 "Hg5 mi
8:00 PM79 °FPassing clouds.3 mph89%29.92 "Hg5 mi
7:00 PM82 °FPassing clouds.2 mph79%29.89 "Hg5 mi
5:00 PM86 °FPartly sunny.5 mph70%29.86 "HgN/A
4:00 PM88 °FBroken clouds.8 mph66%29.86 "HgN/A
Weather by CustomWeather, © 2015

See weather overviewHow to use our weather pages